Regional Weather Roundup
Issued by NWS

Home | Current Version | Previous Version | Graphics & Text | Print | Product List | Glossary On
Versions: 1 2 3 4 5 6 7 8 9 10 11 12 13 14 15 16 17 18 19 20 21 22 23 24 25 26 27 28 29 30 31 32 33 34 35 36 37 38 39 40 41 42 43 44 45 46 47 48 49 50
000
ASUS43 KFSD 020502
RWRSD

WEATHER ROUNDUP FOR SOUTH DAKOTA
NATIONAL WEATHER SERVICE SIOUX FALLS SD
1200 AM CDT TUE SEP 02 2014

NOTE: "FAIR" INDICATES FEW OR NO CLOUDS BELOW 12,000 FEET WITH NO
SIGNIFICANT WEATHER AND/OR OBSTRUCTIONS TO VISIBILITY.


SDZ001>005-009-010-012>017-020600-
NORTHWEST AND NORTH CENTRAL SOUTH DAKOTA

CITY           SKY/WX    TMP DP  RH WIND       PRES   REMARKS
BUFFALO          N/A     52  45  77 SW7       29.88F
FAITH            N/A     52  47  83 S8        29.94R
MOBRIDGE       CLEAR     52  52 100 W3        29.87S
$$

SDZ012>016-024>037-041>051-057-063-072>074-020600-
SOUTHWEST AND SOUTH CENTRAL SOUTH DAKOTA

CITY           SKY/WX    TMP DP  RH WIND       PRES   REMARKS
RAPID CTY ARPT CLEAR     50  47  89 NW3       30.01R
PIERRE         PTCLDY    55  51  86 NW7       29.91R
CUSTER         CLEAR     48  36  63 W7        30.09S
ELLSWORTH AFB  CLEAR     51  46  82 W7        30.00S
PHILIP         CLEAR     52  49  89 SW7       29.96R
PINE RIDGE     CLEAR     47  47 100 MISG      30.04R
WINNER         MOCLDY    58  53  84 SW7       29.96R
$$

SDZ004>011-016>023-039-040-020600-
NORTHEAST SOUTH DAKOTA

CITY           SKY/WX    TMP DP  RH WIND       PRES   REMARKS
ABERDEEN       CLOUDY    54  54 100 SW5       29.86R
WATERTOWN      CLOUDY    61  52  72 W8        29.87R
SISSETON         N/A     61  55  81 W6        29.83S
$$

SDZ017-020-022-023-036>040-048>070-020600-
SOUTHEAST SOUTH DAKOTA

CITY           SKY/WX    TMP DP  RH WIND       PRES   REMARKS
SIOUX FALLS    CLOUDY    63  54  72 W10       29.89S
HURON          CLOUDY    60  55  83 SW8       29.87S
CHAMBERLAIN    CLOUDY    58  56  91 CALM      29.93R
MITCHELL       CLOUDY    61  57  87 SW5       29.90R
YANKTON        CLOUDY    61  55  82 W12       29.90R
$$

ABBREVIATIONS USED IN REMARKS
   TC - TEMPERATURE IN CELSIUS
  WCI - WIND CHILL INDEX
   HX - HEAT INDEX
  VSB - VISIBILITY



USA.gov is the U.S. government's official web portal to all federal, state and local government web resources and services.